FW5766 Weather Reports


Display with metric or nautical units.
time (UTC)temp
F
wind
direction
speed
MPH
gust
MPH
rain 1hr
in
rain 24hr
in
rain mn
in
humidity
%
barometer
mb
20210803143646 53 179 1.0 3.0 0.00 0.00 0.00 92 1021.0
20210803142148 52 179 1.0 3.0 0.00 0.00 0.00 92 1020.9
20210803140646 52 179 1.0 3.0 0.00 0.00 0.00 92 1021.0
20210803135147 52 179 1.0 3.0 0.00 0.00 0.00 92 1020.9
20210803133646 52 179 1.0 4.0 0.00 0.00 0.00 92 1020.8
20210803132145 52 169 2.0 5.0 0.00 0.00 0.00 91 1020.8
20210803130646 52 148 1.0 2.0 0.00 0.00 0.00 92 1020.5
20210803125146 52 148 1.0 3.0 0.00 0.00 0.00 92 1020.2
20210803123646 52 148 1.0 2.0 0.00 0.00 0.00 92 1020.5
20210803122146 52 148 1.0 3.0 0.00 0.00 0.00 92 1020.5
20210803120644 52 148 1.0 3.0 0.00 0.00 0.00 92 1020.4
20210803115144 52 148 2.0 3.0 0.00 0.00 0.00 91 1020.5
20210803113642 52 148 2.0 5.0 0.00 0.00 0.00 90 1020.5
20210803112145 53 136 3.0 5.0 0.00 0.00 0.00 88 1020.5
20210803110645 54 142 1.0 2.0 0.00 0.00 0.00 86 1020.1
20210803105140 54 142 1.0 2.0 0.00 0.00 0.00 85 1020.2
20210803103637 55 142 1.0 2.0 0.00 0.00 0.00 85 1020.4
20210803102134 55 142 1.0 3.0 0.00 0.00 0.00 84 1020.4
20210803100635 55 142 1.0 3.0 0.00 0.00 0.00 84 1020.0
20210803095134 56 142 2.0 4.0 0.00 0.00 0.00 83 1019.9
20210803093632 56 142 1.0 3.0 0.00 0.00 0.00 80 1019.9
20210803092131 57 142 1.0 2.0 0.00 0.00 0.00 79 1019.8
20210803090631 57 142 2.0 3.0 0.00 0.00 0.00 78 1019.9
20210803085132 57 142 2.0 3.0 0.00 0.00 0.00 78 1020.0
20210803083629 58 132 1.0 3.0 0.00 0.00 0.00 76 1019.9
20210803082128 59 132 2.0 4.0 0.00 0.00 0.00 75 1020.0
20210803080628 60 132 1.0 3.0 0.00 0.00 0.00 73 1020.1
20210803075125 60 132 2.0 3.0 0.00 0.00 0.00 70 1020.1
20210803073625 61 132 1.0 2.0 0.00 0.00 0.00 68 1020.1
20210803072125 62 132 1.0 3.0 0.00 0.00 0.00 66 1020.1
20210803070625 62 132 1.0 3.0 0.00 0.00 0.00 63 1020.2
20210803065123 64 132 1.0 3.0 0.00 0.00 0.00 58 1020.1
20210803063623 64 132 0.0 1.0 0.00 0.00 0.00 56 1020.0
20210803062120 65 132 1.0 2.0 0.00 0.00 0.00 57 1019.9
20210803060619 66 132 1.0 2.0 0.00 0.00 0.00 57 1020.0
20210803055118 67 132 1.0 2.0 0.00 0.00 0.00 52 1020.0
20210803053616 68 132 1.0 3.0 0.00 0.00 0.00 53 1020.0
20210803052113 69 132 0.0 1.0 0.00 0.00 0.00 49 1020.0
20210803050612 69 132 1.0 4.0 0.00 0.00 0.00 48 1020.2
20210803045112 71 163 2.0 6.0 0.00 0.00 0.00 46 1019.9
20210803043611 71 166 3.0 5.0 0.00 0.00 0.00 45 1019.8
20210803042110 72 142 3.0 6.0 0.00 0.00 0.00 43 1019.6
20210803040610 73 147 2.0 6.0 0.00 0.00 0.00 41 1019.4
20210803035109 74 173 3.0 6.0 0.00 0.00 0.00 40 1019.4
20210803033606 76 163 3.0 8.0 0.00 0.00 0.00 40 1019.3
20210803032104 77 169 3.0 6.0 0.00 0.00 0.00 37 1019.3
20210803030603 78 173 3.0 9.0 0.00 0.00 0.00 37 1019.3
20210803025102 80 132 4.0 12.0 0.00 0.00 0.00 38 1019.0
20210803023602 81 144 6.0 12.0 0.00 0.00 0.00 37 1018.9
20210803022102 82 139 6.0 12.0 0.00 0.00 0.00 37 1018.8
20210803020555 84 117 6.0 12.0 0.00 0.00 0.00 35 1018.9
20210803015056 84 152 6.0 12.0 0.00 0.00 0.00 35 1018.8
20210803013556 85 177 7.0 13.0 0.00 0.00 0.00 32 1019.0
20210803012057 87 150 5.0 13.0 0.00 0.00 0.00 30 1019.0
20210803010553 87 131 7.0 12.0 0.00 0.00 0.00 29 1019.2
20210803005051 88 126 5.0 12.0 0.00 0.00 0.00 29 1019.0
20210803003547 88 105 5.0 11.0 0.00 0.00 0.00 28 1018.9
20210803002048 88 184 6.0 12.0 0.00 0.00 0.00 27 1018.9
20210803000547 88 134 5.0 11.0 0.00 0.00 0.00 27 1019.1
20210802235049 88 200 5.0 10.0 0.00 0.00 0.00 24 1019.2
20210802233547 88 87 6.0 11.0 0.00 0.00 0.00 24 1019.3
20210802232048 87 149 5.0 13.0 0.00 0.00 0.00 23 1019.4
20210802230547 87 123 5.0 12.0 0.00 0.00 0.00 21 1019.6
20210802225047 87 88 6.0 12.0 0.00 0.00 0.00 22 1019.8
20210802223547 86 132 6.0 12.0 0.00 0.00 0.00 22 1020.1
20210802222048 86 163 6.0 12.0 0.00 0.00 0.00 24 1020.2
20210802220544 84 117 5.0 10.0 0.00 0.00 0.00 25 1020.2
20210802215043 84 116 5.0 11.0 0.00 0.00 0.00 28 1020.6
20210802213544 83 94 6.0 12.0 0.00 0.00 0.00 30 1020.8
20210802212039 83 128 7.0 13.0 0.00 0.00 0.00 28 1020.9
20210802210537 83 121 5.0 13.0 0.00 0.00 0.00 30 1020.9
20210802205035 83 161 4.0 11.0 0.00 0.00 0.00 33 1021.1
20210802203532 81 77 4.0 10.0 0.00 0.00 0.00 35 1021.4
20210802202033 80 182 2.0 9.0 0.00 0.00 0.00 36 1021.7
20210802200531 78 84 4.0 9.0 0.00 0.00 0.00 38 1022.0
20210802195031 77 88 3.0 9.0 0.00 0.00 0.00 39 1022.0
20210802193531 76 138 4.0 9.0 0.00 0.00 0.00 41 1022.1
20210802192031 74 136 3.0 8.0 0.00 0.00 0.00 44 1022.2
20210802190530 72 112 2.0 7.0 0.00 0.00 0.00 47 1022.4
20210802185032 71 99 3.0 7.0 0.00 0.00 0.00 51 1022.5
20210802183530 69 185 3.0 7.0 0.00 0.00 0.00 53 1022.7
20210802182030 68 93 3.0 9.0 0.00 0.00 0.00 57 1022.8
20210802180528 66 15 2.0 6.0 0.00 0.00 0.00 63 1022.9
20210802175027 65 134 2.0 7.0 0.00 0.00 0.00 66 1023.1
20210802173524 63 93 3.0 7.0 0.00 0.00 0.00 69 1023.2
20210802172026 62 105 2.0 7.0 0.00 0.00 0.00 72 1023.3
20210802170523 61 173 2.0 7.0 0.00 0.00 0.00 74 1023.4
20210802165023 59 217 2.0 6.0 0.00 0.00 0.00 78 1023.6
20210802163522 58 175 2.0 6.0 0.00 0.00 0.00 81 1023.5
20210802162020 57 241 1.0 3.0 0.00 0.00 0.00 81 1023.6
20210802160518 57 241 1.0 4.0 0.00 0.00 0.00 82 1023.6
20210802155025 56 167 1.0 4.0 0.00 0.00 0.00 83 1023.7
20210802153514 56 140 1.0 3.0 0.00 0.00 0.00 83 1023.8
20210802152015 56 91 1.0 2.0 0.00 0.00 0.00 83 1023.7
20210802150514 56 92 1.0 3.0 0.00 0.00 0.00 84 1023.6
20210802145015 56 132 1.0 4.0 0.00 0.00 0.00 85 1023.5